Petawawa, Ontario

10:59 AM EST on December 14, 2017 (GMT -0500)
Petawawa

Weather History for CYWA - October, 2013

Change the Weather History Date:

Thursday, October 10, 2013

  Actual Average Record
Temperature  
Mean Temperature 50 °F -  
Max Temperature 67 °F 47 °F 73 °F (2011)
Min Temperature 34 °F 31 °F 29 °F (2015)
Degree Days  
Heating Degree Days 14    
Moisture  
Dew Point 42 °F    
Average Humidity 91    
Maximum Humidity 100    
Minimum Humidity 34    
Precipitation  
Precipitation 0.02 in 0.09 in - ()
Sea Level Pressure  
Sea Level Pressure 30.28 in    
Wind  
Wind Speed 1 mph ()    
Max Wind Speed 4 mph    
Max Gust Speed -    
Visibility 4.5 miles    
Events      
Averages and records for this station are not official NWS values.
T = Trace of Precipitation, MM = Missing Value Source: Averaged Metar Reports

Daily Weather History Graph

Daily Weather History Graph

Search for Another Location

Airport or City:

Trip Planner

Search our weather history database for the weather conditions in past years. The results will help you decide how hot, cold, wet, or windy it might be!

Date:

Astronomy

Oct. 10, 2013 Rise Set
Actual Time 7:19 AM EDT 6:31 PM EDT
Civil Twilight 6:49 AM EDT 7:01 PM EDT
Nautical Twilight 6:15 AM EDT 7:36 PM EDT
Astronomical Twilight 5:40 AM EDT 8:10 PM EDT
Moon 1:21 PM EDT (10/10) 10:56 PM EDT (10/10)
Length of Visible Light 12h 12m
Length of Day
11h 12m
Waxing Crescent, 35% of the Moon is Illuminated
Oct 10
Waxing Crescent
Oct 11
First Quarter
Oct 18
Full
Oct 26
Last Quarter
Nov 3
New

Hourly Weather History & Observations

Time (EDT) Temp. Windchill Dew Point Humidity Pressure Visibility Wind Dir Wind Speed Gust Speed Precip Events Conditions
12:00 AM 44.6 °F - 42.8 °F 93% 30.30 in 9.0 mi Calm Calm - N/A   Clear
1:00 AM 41.0 °F - 41.0 °F 100% 30.29 in 9.0 mi South 2.3 mph - N/A   Clear
2:00 AM 40 °F - 40 °F 98% 30.29 in 9 mi Calm Calm - -  
2:00 AM 39.2 °F - 39.2 °F 100% 30.29 in 9.0 mi Calm Calm - N/A   Clear
3:00 AM 39.2 °F - 37.4 °F 93% 30.29 in 9.0 mi Calm Calm - N/A   Clear
3:12 AM 39.2 °F - 37.4 °F 93% 30.28 in 1.8 mi Calm Calm - N/A   Partly Cloudy
3:13 AM 39.2 °F - 37.4 °F 93% 30.28 in 1.1 mi Calm Calm - N/A   Clear
3:14 AM 39.2 °F - 39.2 °F 100% 30.28 in 1.0 mi Calm Calm - N/A   Clear
3:15 AM 39.2 °F - 39.2 °F 100% 30.28 in 0.8 mi Calm Calm - N/A   Mostly Cloudy
3:16 AM 37.4 °F - 37.4 °F 100% 30.28 in 0.6 mi Calm Calm - N/A   Mostly Cloudy
3:19 AM 37.4 °F - 37.4 °F 100% 30.28 in 0.4 mi Calm Calm - N/A   Unknown
3:25 AM 37.4 °F - 37.4 °F 100% 30.27 in 0.2 mi Calm Calm - N/A   Clear
3:31 AM 35.6 °F - 35.6 °F 100% 30.27 in 0.2 mi Calm Calm - N/A   Mostly Cloudy
3:42 AM 37.4 °F - 37.4 °F 100% 30.27 in 0.2 mi Calm Calm - N/A   Clear
3:46 AM 37.4 °F - 37.4 °F 100% 30.27 in 0.8 mi Calm Calm - N/A   Clear
3:48 AM 37.4 °F - 37.4 °F 100% 30.27 in 3.0 mi Calm Calm - N/A   Clear
4:00 AM 37.4 °F - 37.4 °F 100% 30.29 in 9.0 mi Calm Calm - N/A   Clear
4:53 AM 35.6 °F - 35.6 °F 100% 30.29 in 2.5 mi Calm Calm - N/A   Clear
4:58 AM 35.6 °F - 35.6 °F 100% 30.29 in 1.4 mi SW 2.3 mph - N/A   Mostly Cloudy
5:00 AM 35 °F - 35 °F 98% 30.30 in 1 mi SW 2.3 mph - -  
5:00 AM 35.6 °F - 35.6 °F 100% 30.30 in 1.1 mi WSW 2.3 mph - N/A   Unknown
5:01 AM 35.6 °F - 33.8 °F 93% 30.29 in 0.8 mi SW 2.3 mph - N/A   Unknown
5:02 AM 35.6 °F 32.8 °F 35.6 °F 100% 30.29 in 0.6 mi WSW 3.5 mph - N/A   Unknown
5:04 AM 35.6 °F 32.8 °F 35.6 °F 100% 30.29 in 0.4 mi WSW 3.5 mph - N/A   Unknown
5:07 AM 35.6 °F - 35.6 °F 100% 30.29 in 0.1 mi SW 2.3 mph - N/A   Overcast
5:44 AM 35.6 °F - 35.6 °F 100% 30.29 in 0.1 mi Calm Calm - N/A   Overcast
5:53 AM 35.6 °F - 35.6 °F 100% 30.29 in 0.1 mi SSW 2.3 mph - N/A   Overcast
5:57 AM 35.6 °F - 35.6 °F 100% 30.30 in 0.1 mi SSW 2.3 mph - N/A   Overcast
6:00 AM 37.4 °F - 35.6 °F 93% 30.31 in 0.1 mi Calm Calm - N/A   Overcast
7:00 AM 41.0 °F - 41.0 °F 100% 30.32 in 0.1 mi Calm Calm - N/A   Unknown
8:00 AM 42 °F - 42 °F 100% 30.32 in 0 mi West 2.3 mph - -  
8:00 AM 42.8 °F - 42.8 °F 100% 30.32 in 0.1 mi West 2.3 mph - N/A   Unknown
9:00 AM 44.6 °F - 44.6 °F 100% 30.32 in 0.1 mi SW 2.3 mph - N/A   Unknown
10:00 AM 46.4 °F - 46.4 °F 100% 30.32 in 0.1 mi Calm Calm - N/A   Unknown
10:13 AM 48.2 °F - 48.2 °F 100% 30.30 in 0.5 mi South 2.3 mph - N/A   Overcast
10:25 AM 48.2 °F - 48.2 °F 100% 30.30 in 1.0 mi Calm Calm - N/A   Overcast
10:48 AM 48.2 °F - 48.2 °F 100% 30.30 in 3.0 mi Calm Calm - N/A   Overcast
10:50 AM 48.2 °F - 48.2 °F 100% 30.30 in 5.0 mi Calm Calm - N/A   Overcast
10:53 AM 48.2 °F - 48.2 °F 100% 30.30 in 9.0 mi Calm Calm - N/A   Mostly Cloudy
11:00 AM 49 °F - 49 °F 100% 30.31 in 9 mi Calm Calm - -  
11:00 AM 50.0 °F - 50.0 °F 100% 30.31 in 9.0 mi Calm Calm - N/A   Mostly Cloudy
11:01 AM 50.0 °F - 50.0 °F 100% 30.30 in 9.0 mi Calm Calm - N/A   Scattered Clouds
12:00 PM 53.6 °F - 48.2 °F 82% 30.30 in 9.0 mi ENE 3.5 mph - N/A   Clear
1:00 PM 59.0 °F - 50.0 °F 72% 30.27 in 9.0 mi East 2.3 mph - N/A   Clear
2:00 PM 62 °F - 44 °F 40% 30.26 in 9 mi East 3.5 mph - -  
2:00 PM 62.6 °F - 44.6 °F 52% 30.26 in 9.0 mi ENE 2.3 mph - N/A   Clear
3:00 PM 64.4 °F - 48.2 °F 56% 30.24 in 9.0 mi East 3.5 mph - N/A   Clear
4:00 PM 66.2 °F - 46.4 °F 49% 30.23 in 9.0 mi East 3.5 mph - N/A   Clear
5:00 PM 67 °F - 45 °F 34% 30.22 in 9 mi ESE 2.3 mph - -  
5:00 PM 66.2 °F - 44.6 °F 46% 30.22 in 9.0 mi ESE 3.5 mph - N/A   Clear
6:00 PM 64.4 °F - 44.6 °F 49% 30.22 in 9.0 mi ESE 3.5 mph - N/A   Clear
7:00 PM 55.4 °F - 50.0 °F 82% 30.21 in 9.0 mi Calm Calm - N/A   Clear
8:00 PM 51 °F - 48 °F 86% 30.22 in 9 mi Calm Calm - -  
8:00 PM 51.8 °F - 48.2 °F 88% 30.22 in 9.0 mi Calm Calm - N/A   Clear
9:00 PM 51.8 °F - 48.2 °F 88% 30.21 in 9.0 mi Calm Calm - N/A   Clear
10:00 PM 44.6 °F - 42.8 °F 93% 30.22 in 9.0 mi Calm Calm - N/A   Clear
11:00 PM 46 °F - 45 °F 94% 30.21 in 9 mi Calm Calm - -  
11:00 PM 46.4 °F - 44.6 °F 93% 30.21 in 9.0 mi WSW 2.3 mph - N/A   Clear